Year,Month,Day,Hour,Minute,Value (Times are PST for temperature in C)
2015,08,17,00,00,19.10
2015,08,17,00,01,19.10
2015,08,17,00,02,19.10
2015,08,17,00,03,19.10
2015,08,17,00,04,19.10
2015,08,17,00,05,19.10
2015,08,17,00,06,19.10
2015,08,17,00,07,19.10
2015,08,17,00,08,19.00
2015,08,17,00,09,19.00
2015,08,17,00,10,19.00
2015,08,17,00,11,18.90
2015,08,17,00,12,18.90
2015,08,17,00,13,18.90
2015,08,17,00,14,18.90
2015,08,17,00,15,18.90
2015,08,17,00,16,18.90
2015,08,17,00,17,18.90
2015,08,17,00,18,18.90
2015,08,17,00,19,18.80
2015,08,17,00,20,18.80
2015,08,17,00,21,18.80
2015,08,17,00,22,18.80
2015,08,17,00,23,18.80
2015,08,17,00,24,18.80
2015,08,17,00,25,18.80
2015,08,17,00,26,18.70
2015,08,17,00,27,18.70
2015,08,17,00,28,18.70
2015,08,17,00,29,18.70
2015,08,17,00,30,18.70
2015,08,17,00,31,18.70
2015,08,17,00,32,18.70
2015,08,17,00,33,18.60
2015,08,17,00,34,18.60
2015,08,17,00,35,18.60
2015,08,17,00,36,18.60
2015,08,17,00,37,18.60
2015,08,17,00,38,18.60
2015,08,17,00,39,18.60
2015,08,17,00,40,18.60
2015,08,17,00,41,18.60
2015,08,17,00,42,18.50
2015,08,17,00,43,18.50
2015,08,17,00,44,18.50
2015,08,17,00,45,18.50
2015,08,17,00,46,18.40
2015,08,17,00,47,18.40
2015,08,17,00,48,18.40
2015,08,17,00,49,18.30
2015,08,17,00,50,18.30
2015,08,17,00,51,18.30
2015,08,17,00,52,18.30
2015,08,17,00,53,18.20
2015,08,17,00,54,18.20
2015,08,17,00,55,18.20
2015,08,17,00,56,18.20
2015,08,17,00,57,18.10
2015,08,17,00,58,18.10
2015,08,17,00,59,18.10
2015,08,17,01,00,18.10
2015,08,17,01,01,18.10
2015,08,17,01,02,18.00
2015,08,17,01,03,18.00
2015,08,17,01,04,18.00
2015,08,17,01,05,18.00
2015,08,17,01,06,18.00
2015,08,17,01,07,17.90
2015,08,17,01,08,17.90
2015,08,17,01,09,17.90
2015,08,17,01,10,17.90
2015,08,17,01,11,17.90
2015,08,17,01,12,17.90
2015,08,17,01,13,17.90
2015,08,17,01,14,17.90
2015,08,17,01,15,17.90
2015,08,17,01,16,17.80
2015,08,17,01,17,17.80
2015,08,17,01,18,17.80
2015,08,17,01,19,17.80
2015,08,17,01,20,17.80
2015,08,17,01,21,17.80
2015,08,17,01,22,17.80
2015,08,17,01,23,17.80
2015,08,17,01,24,17.80
2015,08,17,01,25,17.80
2015,08,17,01,26,17.80
2015,08,17,01,27,17.80
2015,08,17,01,28,17.90
2015,08,17,01,29,17.90
2015,08,17,01,30,17.90
2015,08,17,01,31,17.90
2015,08,17,01,32,17.80
2015,08,17,01,33,17.80
2015,08,17,01,34,17.80
2015,08,17,01,35,17.80
2015,08,17,01,36,17.80
2015,08,17,01,37,17.80
2015,08,17,01,38,17.80
2015,08,17,01,39,17.80
2015,08,17,01,40,17.80
2015,08,17,01,41,17.80
2015,08,17,01,42,17.80
2015,08,17,01,43,17.70
2015,08,17,01,44,17.70
2015,08,17,01,45,17.70
2015,08,17,01,46,17.70
2015,08,17,01,47,17.70
2015,08,17,01,48,17.60
2015,08,17,01,49,17.60
2015,08,17,01,50,17.60
2015,08,17,01,51,17.60
2015,08,17,01,52,17.60
2015,08,17,01,53,17.60
2015,08,17,01,54,17.60
2015,08,17,01,55,17.60
2015,08,17,01,56,17.60
2015,08,17,01,57,17.60
2015,08,17,01,58,17.60
2015,08,17,01,59,17.70
2015,08,17,02,00,17.70
2015,08,17,02,01,17.70
2015,08,17,02,02,17.70
2015,08,17,02,03,17.80
2015,08,17,02,04,17.80
2015,08,17,02,05,17.80
2015,08,17,02,06,17.90
2015,08,17,02,07,17.90
2015,08,17,02,08,17.90
2015,08,17,02,09,17.90
2015,08,17,02,10,17.90
2015,08,17,02,11,17.90
2015,08,17,02,12,17.80
2015,08,17,02,13,17.80
2015,08,17,02,14,17.80
2015,08,17,02,15,17.70
2015,08,17,02,16,17.70
2015,08,17,02,17,17.60
2015,08,17,02,18,17.50
2015,08,17,02,19,17.40
2015,08,17,02,20,17.40
2015,08,17,02,21,17.30
2015,08,17,02,22,17.30
2015,08,17,02,23,17.30
2015,08,17,02,24,17.30
2015,08,17,02,25,17.20
2015,08,17,02,26,17.20
2015,08,17,02,27,17.30
2015,08,17,02,28,17.30
2015,08,17,02,29,17.40
2015,08,17,02,30,17.50
2015,08,17,02,31,17.60
2015,08,17,02,32,17.70
2015,08,17,02,33,17.80
2015,08,17,02,34,17.80
2015,08,17,02,35,17.90
2015,08,17,02,36,18.00
2015,08,17,02,37,18.00
2015,08,17,02,38,18.00
2015,08,17,02,39,18.10
2015,08,17,02,40,18.10
2015,08,17,02,41,18.10
2015,08,17,02,42,18.20
2015,08,17,02,43,18.20
2015,08,17,02,44,18.20
2015,08,17,02,45,18.20
2015,08,17,02,46,18.30
2015,08,17,02,47,18.30
2015,08,17,02,48,18.30
2015,08,17,02,49,18.40
2015,08,17,02,50,18.40
2015,08,17,02,51,18.40
2015,08,17,02,52,18.40
2015,08,17,02,53,18.40
2015,08,17,02,54,18.40
2015,08,17,02,55,18.50
2015,08,17,02,56,18.50
2015,08,17,02,57,18.50
2015,08,17,02,58,18.50
2015,08,17,02,59,18.50
2015,08,17,03,00,18.50
2015,08,17,03,01,18.40
2015,08,17,03,02,18.40
2015,08,17,03,03,18.40
2015,08,17,03,04,18.40
2015,08,17,03,05,18.40
2015,08,17,03,06,18.30
2015,08,17,03,07,18.30
2015,08,17,03,08,18.30
2015,08,17,03,09,18.30
2015,08,17,03,10,18.30
2015,08,17,03,11,18.20
2015,08,17,03,12,18.20
2015,08,17,03,13,18.20
2015,08,17,03,14,18.20
2015,08,17,03,15,18.20
2015,08,17,03,16,18.20
2015,08,17,03,17,18.20
2015,08,17,03,18,18.20
2015,08,17,03,19,18.20
2015,08,17,03,20,18.20
2015,08,17,03,21,18.20
2015,08,17,03,22,18.20
2015,08,17,03,23,18.20
2015,08,17,03,24,18.20
2015,08,17,03,25,18.20
2015,08,17,03,26,18.20
2015,08,17,03,27,18.20
2015,08,17,03,28,18.20
2015,08,17,03,29,18.20
2015,08,17,03,30,18.20
2015,08,17,03,31,18.20
2015,08,17,03,32,18.20
2015,08,17,03,33,18.20
2015,08,17,03,34,18.20
2015,08,17,03,35,18.20
2015,08,17,03,36,18.20
2015,08,17,03,37,18.20
2015,08,17,03,38,18.20
2015,08,17,03,39,18.20
2015,08,17,03,40,18.20
2015,08,17,03,41,18.20
2015,08,17,03,42,18.20
2015,08,17,03,43,18.20
2015,08,17,03,44,18.20
2015,08,17,03,45,18.20
2015,08,17,03,46,18.10
2015,08,17,03,47,18.10
2015,08,17,03,48,18.10
2015,08,17,03,49,18.10
2015,08,17,03,50,18.10
2015,08,17,03,51,18.10
2015,08,17,03,52,18.10
2015,08,17,03,53,18.00
2015,08,17,03,54,18.00
2015,08,17,03,55,18.00
2015,08,17,03,56,18.00
2015,08,17,03,57,18.00
2015,08,17,03,58,18.00
2015,08,17,03,59,18.00
2015,08,17,04,00,18.00
2015,08,17,04,01,18.00
2015,08,17,04,02,18.00
2015,08,17,04,03,18.00
2015,08,17,04,04,18.00
2015,08,17,04,05,18.00
2015,08,17,04,06,18.00
2015,08,17,04,07,18.00
2015,08,17,04,08,18.00
2015,08,17,04,09,18.00
2015,08,17,04,10,18.00
2015,08,17,04,11,18.00
2015,08,17,04,12,18.00
2015,08,17,04,13,17.90
2015,08,17,04,14,17.90
2015,08,17,04,15,17.90
2015,08,17,04,16,17.90
2015,08,17,04,17,17.90
2015,08,17,04,18,17.90
2015,08,17,04,19,17.90
2015,08,17,04,20,17.90
2015,08,17,04,21,17.90
2015,08,17,04,22,17.90
2015,08,17,04,23,17.90
2015,08,17,04,24,17.90
2015,08,17,04,25,17.90
2015,08,17,04,26,17.90
2015,08,17,04,27,17.80
2015,08,17,04,28,17.80
2015,08,17,04,29,17.80
2015,08,17,04,30,17.80
2015,08,17,04,31,17.80
2015,08,17,04,32,17.70
2015,08,17,04,33,17.70
2015,08,17,04,34,17.70
2015,08,17,04,35,17.70
2015,08,17,04,36,17.70
2015,08,17,04,37,17.70
2015,08,17,04,38,17.60
2015,08,17,04,39,17.60
2015,08,17,04,40,17.60
2015,08,17,04,41,17.60
2015,08,17,04,42,17.60
2015,08,17,04,43,17.60
2015,08,17,04,44,17.60
2015,08,17,04,45,17.60
2015,08,17,04,46,17.60
2015,08,17,04,47,17.60
2015,08,17,04,48,17.50
2015,08,17,04,49,17.50
2015,08,17,04,50,17.50
2015,08,17,04,51,17.40
2015,08,17,04,52,17.40
2015,08,17,04,53,17.40
2015,08,17,04,54,17.40
2015,08,17,04,55,17.40
2015,08,17,04,56,17.40
2015,08,17,04,57,17.40
2015,08,17,04,58,17.40
2015,08,17,04,59,17.40
2015,08,17,05,00,17.40
2015,08,17,05,01,17.40
2015,08,17,05,02,17.30
2015,08,17,05,03,17.40
2015,08,17,05,04,17.30
2015,08,17,05,05,17.30
2015,08,17,05,06,17.30
2015,08,17,05,07,17.30
2015,08,17,05,08,17.40
2015,08,17,05,09,17.40
2015,08,17,05,10,17.40
2015,08,17,05,11,17.40
2015,08,17,05,12,17.40
2015,08,17,05,13,17.40
2015,08,17,05,14,17.40
2015,08,17,05,15,17.40
2015,08,17,05,16,17.40
2015,08,17,05,17,17.40
2015,08,17,05,18,17.40
2015,08,17,05,19,17.40
2015,08,17,05,20,17.30
2015,08,17,05,21,17.30
2015,08,17,05,22,17.30
2015,08,17,05,23,17.30
2015,08,17,05,24,17.30
2015,08,17,05,25,17.30
2015,08,17,05,26,17.30
2015,08,17,05,27,17.30
2015,08,17,05,28,17.30
2015,08,17,05,29,17.30
2015,08,17,05,30,17.30
2015,08,17,05,31,17.30
2015,08,17,05,32,17.20
2015,08,17,05,33,17.20
2015,08,17,05,34,17.20
2015,08,17,05,35,17.20
2015,08,17,05,36,17.20
2015,08,17,05,37,17.20
2015,08,17,05,38,17.20
2015,08,17,05,39,17.20
2015,08,17,05,40,17.10
2015,08,17,05,41,17.10
2015,08,17,05,42,17.10
2015,08,17,05,43,17.10
2015,08,17,05,44,17.10
2015,08,17,05,45,17.10
2015,08,17,05,46,17.10
2015,08,17,05,47,17.00
2015,08,17,05,48,17.00
2015,08,17,05,49,17.00
2015,08,17,05,50,17.00
2015,08,17,05,51,17.00
2015,08,17,05,52,17.00
2015,08,17,05,53,16.90
2015,08,17,05,54,16.90
2015,08,17,05,55,16.90
2015,08,17,05,56,16.90
2015,08,17,05,57,16.90
2015,08,17,05,58,16.90
2015,08,17,05,59,16.90
2015,08,17,06,00,16.90
2015,08,17,06,01,16.80
2015,08,17,06,02,16.80
2015,08,17,06,03,16.80
2015,08,17,06,04,16.80
2015,08,17,06,05,16.80
2015,08,17,06,06,16.80
2015,08,17,06,07,16.80
2015,08,17,06,08,16.80
2015,08,17,06,09,16.80
2015,08,17,06,10,16.80
2015,08,17,06,11,16.70
2015,08,17,06,12,16.70
2015,08,17,06,13,16.70
2015,08,17,06,14,16.70
2015,08,17,06,15,16.70
2015,08,17,06,16,16.70
2015,08,17,06,17,16.70
2015,08,17,06,18,16.70
2015,08,17,06,19,16.60
2015,08,17,06,20,16.60
2015,08,17,06,21,16.60
2015,08,17,06,22,16.60
2015,08,17,06,23,16.60
2015,08,17,06,24,16.60
2015,08,17,06,25,16.60
2015,08,17,06,26,16.60
2015,08,17,06,27,16.60
2015,08,17,06,28,16.60
2015,08,17,06,29,16.60
2015,08,17,06,30,16.60
2015,08,17,06,31,16.60
2015,08,17,06,32,16.60
2015,08,17,06,33,16.60
2015,08,17,06,34,16.60
2015,08,17,06,35,16.60
2015,08,17,06,36,16.60
2015,08,17,06,37,16.60
2015,08,17,06,38,16.70
2015,08,17,06,39,16.70
2015,08,17,06,40,16.70
2015,08,17,06,41,16.80
2015,08,17,06,42,16.80
2015,08,17,06,43,16.80
2015,08,17,06,44,16.80
2015,08,17,06,45,16.80
2015,08,17,06,46,16.80
2015,08,17,06,47,16.80
2015,08,17,06,48,16.80
2015,08,17,06,49,16.90
2015,08,17,06,50,16.90
2015,08,17,06,51,16.90
2015,08,17,06,52,16.90
2015,08,17,06,53,16.90
2015,08,17,06,54,17.00
2015,08,17,06,55,17.00
2015,08,17,06,56,17.10
2015,08,17,06,57,17.10
2015,08,17,06,58,17.10
2015,08,17,06,59,17.10
2015,08,17,07,00,17.20
2015,08,17,07,01,17.20
2015,08,17,07,02,17.20
2015,08,17,07,03,17.20
2015,08,17,07,04,17.30
2015,08,17,07,05,17.30
2015,08,17,07,06,17.30
2015,08,17,07,07,17.30
2015,08,17,07,08,17.30
2015,08,17,07,09,17.40
2015,08,17,07,10,17.40
2015,08,17,07,11,17.40
2015,08,17,07,12,17.40
2015,08,17,07,13,17.40
2015,08,17,07,14,17.50
2015,08,17,07,15,17.50
2015,08,17,07,16,17.50
2015,08,17,07,17,17.60
2015,08,17,07,18,17.60
2015,08,17,07,19,17.60
2015,08,17,07,20,17.60
2015,08,17,07,21,17.70
2015,08,17,07,22,17.70
2015,08,17,07,23,17.70
2015,08,17,07,24,17.80
2015,08,17,07,25,17.80
2015,08,17,07,26,17.90
2015,08,17,07,27,17.90
2015,08,17,07,28,17.90
2015,08,17,07,29,18.00
2015,08,17,07,30,18.00
2015,08,17,07,31,18.10
2015,08,17,07,32,18.10
2015,08,17,07,33,18.10
2015,08,17,07,34,18.20
2015,08,17,07,35,18.20
2015,08,17,07,36,18.20
2015,08,17,07,37,18.20
2015,08,17,07,38,18.20
2015,08,17,07,39,18.20
2015,08,17,07,40,18.30
2015,08,17,07,41,18.30
2015,08,17,07,42,18.30
2015,08,17,07,43,18.30
2015,08,17,07,44,18.30
2015,08,17,07,45,18.30
2015,08,17,07,46,18.40
2015,08,17,07,47,18.40
2015,08,17,07,48,18.40
2015,08,17,07,49,18.40
2015,08,17,07,50,18.40
2015,08,17,07,51,18.40
2015,08,17,07,52,18.40
2015,08,17,07,53,18.50
2015,08,17,07,54,18.50
2015,08,17,07,55,18.60
2015,08,17,07,56,18.60
2015,08,17,07,57,18.60
2015,08,17,07,58,18.70
2015,08,17,07,59,18.70
2015,08,17,08,00,18.70
2015,08,17,08,01,18.70
2015,08,17,08,02,18.80
2015,08,17,08,03,18.80
2015,08,17,08,04,18.80
2015,08,17,08,05,18.80
2015,08,17,08,06,18.80
2015,08,17,08,07,18.90
2015,08,17,08,08,18.90
2015,08,17,08,09,18.90
2015,08,17,08,10,18.90
2015,08,17,08,11,18.90
2015,08,17,08,12,18.90
2015,08,17,08,13,18.90
2015,08,17,08,14,18.90
2015,08,17,08,15,18.90
2015,08,17,08,16,18.90
2015,08,17,08,17,19.00
2015,08,17,08,18,19.00
2015,08,17,08,19,19.00
2015,08,17,08,20,19.00
2015,08,17,08,21,19.00
2015,08,17,08,22,19.00
2015,08,17,08,23,19.00
2015,08,17,08,24,19.00
2015,08,17,08,25,19.00
2015,08,17,08,26,19.00
2015,08,17,08,27,19.00
2015,08,17,08,28,19.00
2015,08,17,08,29,19.00
2015,08,17,08,30,19.00
2015,08,17,08,31,18.90
2015,08,17,08,32,19.00
2015,08,17,08,33,19.00
2015,08,17,08,34,19.00
2015,08,17,08,35,19.00
2015,08,17,08,36,19.10
2015,08,17,08,37,19.10
2015,08,17,08,38,19.10
2015,08,17,08,39,19.10
2015,08,17,08,40,19.10
2015,08,17,08,41,19.20
2015,08,17,08,42,19.20
2015,08,17,08,43,19.20
2015,08,17,08,44,19.30
2015,08,17,08,45,19.30
2015,08,17,08,46,19.30
2015,08,17,08,47,19.30
2015,08,17,08,48,19.30
2015,08,17,08,49,19.20
2015,08,17,08,50,19.20
2015,08,17,08,51,19.20
2015,08,17,08,52,19.30
2015,08,17,08,53,19.30
2015,08,17,08,54,19.30
2015,08,17,08,55,19.30
2015,08,17,08,56,19.30
2015,08,17,08,57,19.40
2015,08,17,08,58,19.40
2015,08,17,08,59,19.40
2015,08,17,09,00,19.50
2015,08,17,09,01,19.50
2015,08,17,09,02,19.50
2015,08,17,09,03,19.50
2015,08,17,09,04,19.50
2015,08,17,09,05,19.50
2015,08,17,09,06,19.50
2015,08,17,09,07,19.50
2015,08,17,09,08,19.50
2015,08,17,09,09,19.50
2015,08,17,09,10,19.50
2015,08,17,09,11,19.50
2015,08,17,09,12,19.50
2015,08,17,09,13,19.60
2015,08,17,09,14,19.60
2015,08,17,09,15,19.60
2015,08,17,09,16,19.60
2015,08,17,09,17,19.70
2015,08,17,09,18,19.70
2015,08,17,09,19,19.70
2015,08,17,09,20,19.70
2015,08,17,09,21,19.70
2015,08,17,09,22,19.70
2015,08,17,09,23,19.70
2015,08,17,09,24,19.80
2015,08,17,09,25,19.80
2015,08,17,09,26,19.80
2015,08,17,09,27,19.80
2015,08,17,09,28,19.80
2015,08,17,09,29,19.80
2015,08,17,09,30,19.80
2015,08,17,09,31,19.80
2015,08,17,09,32,19.80
2015,08,17,09,33,19.90
2015,08,17,09,34,19.90
2015,08,17,09,35,19.90
2015,08,17,09,36,20.00
2015,08,17,09,37,20.00
2015,08,17,09,38,20.10
2015,08,17,09,39,20.10
2015,08,17,09,40,20.20
2015,08,17,09,41,20.20
2015,08,17,09,42,20.30
2015,08,17,09,43,20.30
2015,08,17,09,44,20.30
2015,08,17,09,45,20.30
2015,08,17,09,46,20.40
2015,08,17,09,47,20.40
2015,08,17,09,48,20.40
2015,08,17,09,49,20.40
2015,08,17,09,50,20.40
2015,08,17,09,51,20.40
2015,08,17,09,52,20.50
2015,08,17,09,53,20.50
2015,08,17,09,54,20.50
2015,08,17,09,55,20.60
2015,08,17,09,56,20.60
2015,08,17,09,57,20.70
2015,08,17,09,58,20.70
2015,08,17,09,59,20.80
2015,08,17,10,00,20.80
2015,08,17,10,01,20.90
2015,08,17,10,02,20.90
2015,08,17,10,03,21.00
2015,08,17,10,04,21.10
2015,08,17,10,05,21.10
2015,08,17,10,06,21.20
2015,08,17,10,07,21.20
2015,08,17,10,08,21.30
2015,08,17,10,09,21.30
2015,08,17,10,10,21.30
2015,08,17,10,11,21.30
2015,08,17,10,12,21.20
2015,08,17,10,13,21.20
2015,08,17,10,14,21.20
2015,08,17,10,15,21.20
2015,08,17,10,16,21.20
2015,08,17,10,17,21.20
2015,08,17,10,18,21.20
2015,08,17,10,19,21.20
2015,08,17,10,20,21.20
2015,08,17,10,21,21.20
2015,08,17,10,22,21.30
2015,08,17,10,23,21.30
2015,08,17,10,24,21.30
2015,08,17,10,25,21.30
2015,08,17,10,26,21.30
2015,08,17,10,27,21.40
2015,08,17,10,28,21.40
2015,08,17,10,29,21.40
2015,08,17,10,30,21.40
2015,08,17,10,31,21.40
2015,08,17,10,32,21.30
2015,08,17,10,33,21.30
2015,08,17,10,34,21.30
2015,08,17,10,35,21.30
2015,08,17,10,36,21.40
2015,08,17,10,37,21.40
2015,08,17,10,38,21.50
2015,08,17,10,39,21.50
2015,08,17,10,40,21.60
2015,08,17,10,41,21.70
2015,08,17,10,42,21.70
2015,08,17,10,43,21.70
2015,08,17,10,44,21.70
2015,08,17,10,45,21.70
2015,08,17,10,46,21.70
2015,08,17,10,47,21.70
2015,08,17,10,48,21.70
2015,08,17,10,49,21.70
2015,08,17,10,50,21.70
2015,08,17,10,51,21.60
2015,08,17,10,52,21.60
2015,08,17,10,53,21.70
2015,08,17,10,54,21.70
2015,08,17,10,55,21.70
2015,08,17,10,56,21.70
2015,08,17,10,57,21.60
2015,08,17,10,58,21.60
2015,08,17,10,59,21.50
2015,08,17,11,00,21.50
2015,08,17,11,01,21.40
2015,08,17,11,02,21.40
2015,08,17,11,03,21.40
2015,08,17,11,04,21.50
2015,08,17,11,05,21.50
2015,08,17,11,06,21.60
2015,08,17,11,07,21.60
2015,08,17,11,08,21.70
2015,08,17,11,09,21.70
2015,08,17,11,10,21.70
2015,08,17,11,11,21.70
2015,08,17,11,12,21.80
2015,08,17,11,13,21.80
2015,08,17,11,14,21.80
2015,08,17,11,15,21.80
2015,08,17,11,16,21.80
2015,08,17,11,17,21.90
2015,08,17,11,18,21.90
2015,08,17,11,19,22.00
2015,08,17,11,20,22.10
2015,08,17,11,21,22.10
2015,08,17,11,22,22.20
2015,08,17,11,23,22.30
2015,08,17,11,24,22.30
2015,08,17,11,25,22.30
2015,08,17,11,26,22.30
2015,08,17,11,27,22.30
2015,08,17,11,28,22.30
2015,08,17,11,29,22.20
2015,08,17,11,30,22.30
2015,08,17,11,31,22.30
2015,08,17,11,32,22.40
2015,08,17,11,33,22.40
2015,08,17,11,34,22.40
2015,08,17,11,35,22.50
2015,08,17,11,36,22.50
2015,08,17,11,37,22.50
2015,08,17,11,38,22.50
2015,08,17,11,39,22.60
2015,08,17,11,40,22.60
2015,08,17,11,41,22.70
2015,08,17,11,42,22.70
2015,08,17,11,43,22.70
2015,08,17,11,44,22.60
2015,08,17,11,45,22.60
2015,08,17,11,46,22.60
2015,08,17,11,47,22.70
2015,08,17,11,48,22.80
2015,08,17,11,49,22.90
2015,08,17,11,50,22.90
2015,08,17,11,51,23.00
2015,08,17,11,52,23.00
2015,08,17,11,53,23.00
2015,08,17,11,54,23.00
2015,08,17,11,55,23.00
2015,08,17,11,56,23.00
2015,08,17,11,57,23.10
2015,08,17,11,58,23.10
2015,08,17,11,59,23.10
2015,08,17,12,00,23.00
2015,08,17,12,01,23.00
2015,08,17,12,02,23.00
2015,08,17,12,03,22.90
2015,08,17,12,04,22.90
2015,08,17,12,05,22.90
2015,08,17,12,06,22.90
2015,08,17,12,07,22.90
2015,08,17,12,08,22.90
2015,08,17,12,09,22.80
2015,08,17,12,10,22.80
2015,08,17,12,11,22.70
2015,08,17,12,12,22.80
2015,08,17,12,13,22.80
2015,08,17,12,14,22.90
2015,08,17,12,15,22.90
2015,08,17,12,16,22.90
2015,08,17,12,17,23.00
2015,08,17,12,18,23.00
2015,08,17,12,19,23.10
2015,08,17,12,20,23.20
2015,08,17,12,21,23.30
2015,08,17,12,22,23.30
2015,08,17,12,23,23.30
2015,08,17,12,24,23.30
2015,08,17,12,25,23.20
2015,08,17,12,26,23.00
2015,08,17,12,27,23.00
2015,08,17,12,28,22.90
2015,08,17,12,29,22.90
2015,08,17,12,30,23.00
2015,08,17,12,31,23.00
2015,08,17,12,32,22.90
2015,08,17,12,33,22.90
2015,08,17,12,34,23.00
2015,08,17,12,35,23.00
2015,08,17,12,36,22.90
2015,08,17,12,37,22.90
2015,08,17,12,38,22.90
2015,08,17,12,39,22.90
2015,08,17,12,40,22.90
2015,08,17,12,41,23.00
2015,08,17,12,42,22.90
2015,08,17,12,43,22.90
2015,08,17,12,44,22.80
2015,08,17,12,45,22.80
2015,08,17,12,46,22.90
2015,08,17,12,47,22.90
2015,08,17,12,48,23.00
2015,08,17,12,49,23.00
2015,08,17,12,50,23.10
2015,08,17,12,51,23.10
2015,08,17,12,52,23.10
2015,08,17,12,53,23.00
2015,08,17,12,54,23.00
2015,08,17,12,55,23.00
2015,08,17,12,56,23.00
2015,08,17,12,57,23.00
2015,08,17,12,58,23.00
2015,08,17,12,59,23.00
2015,08,17,13,00,23.10
2015,08,17,13,01,23.10
2015,08,17,13,02,23.10
2015,08,17,13,03,23.00
2015,08,17,13,04,22.90
2015,08,17,13,05,22.90
2015,08,17,13,06,22.90
2015,08,17,13,07,22.90
2015,08,17,13,08,22.80
2015,08,17,13,09,22.80
2015,08,17,13,10,22.80
2015,08,17,13,11,22.80
2015,08,17,13,12,22.80
2015,08,17,13,13,22.80
2015,08,17,13,14,22.80
2015,08,17,13,15,22.80
2015,08,17,13,16,22.80
2015,08,17,13,17,22.80
2015,08,17,13,18,22.80
2015,08,17,13,19,22.80
2015,08,17,13,20,22.90
2015,08,17,13,21,22.80
2015,08,17,13,22,22.90
2015,08,17,13,23,22.90
2015,08,17,13,24,23.00
2015,08,17,13,25,23.00
2015,08,17,13,26,23.10
2015,08,17,13,27,23.10
2015,08,17,13,28,23.20
2015,08,17,13,29,23.30
2015,08,17,13,30,23.30
2015,08,17,13,31,23.30
2015,08,17,13,32,23.30
2015,08,17,13,33,23.30
2015,08,17,13,34,23.30
2015,08,17,13,35,23.30
2015,08,17,13,36,23.30
2015,08,17,13,37,23.40
2015,08,17,13,38,23.40
2015,08,17,13,39,23.50
2015,08,17,13,40,23.60
2015,08,17,13,41,23.60
2015,08,17,13,42,23.70
2015,08,17,13,43,23.70
2015,08,17,13,44,23.80
2015,08,17,13,45,23.90
2015,08,17,13,46,24.00
2015,08,17,13,47,24.10
2015,08,17,13,48,24.20
2015,08,17,13,49,24.30
2015,08,17,13,50,24.30
2015,08,17,13,51,24.30
2015,08,17,13,52,24.30
2015,08,17,13,53,24.20
2015,08,17,13,54,24.20
2015,08,17,13,55,24.20
2015,08,17,13,56,24.30
2015,08,17,13,57,24.30
2015,08,17,13,58,24.40
2015,08,17,13,59,24.40
2015,08,17,14,00,24.30
2015,08,17,14,01,24.30
2015,08,17,14,02,24.20
2015,08,17,14,03,24.20
2015,08,17,14,04,24.20
2015,08,17,14,05,24.20
2015,08,17,14,06,24.20
2015,08,17,14,07,24.20
2015,08,17,14,08,24.20
2015,08,17,14,09,24.20
2015,08,17,14,10,24.20
2015,08,17,14,11,24.20
2015,08,17,14,12,24.30
2015,08,17,14,13,24.30
2015,08,17,14,14,24.40
2015,08,17,14,15,24.40
2015,08,17,14,16,24.50
2015,08,17,14,17,24.50
2015,08,17,14,18,24.60
2015,08,17,14,19,24.60
2015,08,17,14,20,24.60
2015,08,17,14,21,24.60
2015,08,17,14,22,24.60
2015,08,17,14,23,24.60
2015,08,17,14,24,24.70
2015,08,17,14,25,24.70
2015,08,17,14,26,24.70
2015,08,17,14,27,24.70
2015,08,17,14,28,24.70
2015,08,17,14,29,24.70
2015,08,17,14,30,24.70
2015,08,17,14,31,24.70
2015,08,17,14,32,24.80
2015,08,17,14,33,24.80
2015,08,17,14,34,24.80
2015,08,17,14,35,24.80
2015,08,17,14,36,24.70
2015,08,17,14,37,24.60
2015,08,17,14,38,24.60
2015,08,17,14,39,24.60
2015,08,17,14,40,24.60
2015,08,17,14,41,24.60
2015,08,17,14,42,24.60
2015,08,17,14,43,24.50
2015,08,17,14,44,24.50
2015,08,17,14,45,24.50
2015,08,17,14,46,24.60
2015,08,17,14,47,24.60
2015,08,17,14,48,24.70
2015,08,17,14,49,24.70
2015,08,17,14,50,24.80
2015,08,17,14,51,24.90
2015,08,17,14,52,25.00
2015,08,17,14,53,25.00
2015,08,17,14,54,25.10
2015,08,17,14,55,25.20
2015,08,17,14,56,25.20
2015,08,17,14,57,25.30
2015,08,17,14,58,25.40
2015,08,17,14,59,25.40
2015,08,17,15,00,25.30
2015,08,17,15,01,25.30
2015,08,17,15,02,25.30
2015,08,17,15,03,25.30
2015,08,17,15,04,25.30
2015,08,17,15,05,25.40
2015,08,17,15,06,25.40
2015,08,17,15,07,25.30
2015,08,17,15,08,25.30
2015,08,17,15,09,25.20
2015,08,17,15,10,25.20
2015,08,17,15,11,25.20
2015,08,17,15,12,25.20
2015,08,17,15,13,25.20
2015,08,17,15,14,25.20
2015,08,17,15,15,25.20
2015,08,17,15,16,25.30
2015,08,17,15,17,25.30
2015,08,17,15,18,25.30
2015,08,17,15,19,25.30
2015,08,17,15,20,25.30
2015,08,17,15,21,25.30
2015,08,17,15,22,25.40
2015,08,17,15,23,25.40
2015,08,17,15,24,25.40
2015,08,17,15,25,25.50
2015,08,17,15,26,25.60
2015,08,17,15,27,25.60
2015,08,17,15,28,25.70
2015,08,17,15,29,25.70
2015,08,17,15,30,25.70
2015,08,17,15,31,25.60
2015,08,17,15,32,25.50
2015,08,17,15,33,25.40
2015,08,17,15,34,25.30
2015,08,17,15,35,25.40
2015,08,17,15,36,25.40
2015,08,17,15,37,25.40
2015,08,17,15,38,25.40
2015,08,17,15,39,25.40
2015,08,17,15,40,25.40
2015,08,17,15,41,25.40
2015,08,17,15,42,25.30
2015,08,17,15,43,25.20
2015,08,17,15,44,25.10
2015,08,17,15,45,25.10
2015,08,17,15,46,25.20
2015,08,17,15,47,25.20
2015,08,17,15,48,25.30
2015,08,17,15,49,25.30
2015,08,17,15,50,25.30
2015,08,17,15,51,25.30
2015,08,17,15,52,25.30
2015,08,17,15,53,25.30
2015,08,17,15,54,25.30
2015,08,17,15,55,25.30
2015,08,17,15,56,25.20
2015,08,17,15,57,25.20
2015,08,17,15,58,25.20
2015,08,17,15,59,25.20
2015,08,17,16,00,25.20
2015,08,17,16,01,25.20
2015,08,17,16,02,25.20
2015,08,17,16,03,25.20
2015,08,17,16,04,25.20
2015,08,17,16,05,25.20
2015,08,17,16,06,25.10
2015,08,17,16,07,25.10
2015,08,17,16,08,25.20
2015,08,17,16,09,25.20
2015,08,17,16,10,25.30
2015,08,17,16,11,25.30
2015,08,17,16,12,25.30
2015,08,17,16,13,25.40
2015,08,17,16,14,25.30
2015,08,17,16,15,25.30
2015,08,17,16,16,25.20
2015,08,17,16,17,25.10
2015,08,17,16,18,25.10
2015,08,17,16,19,25.10
2015,08,17,16,20,25.10
2015,08,17,16,21,25.10
2015,08,17,16,22,25.10
2015,08,17,16,23,25.00
2015,08,17,16,24,25.00
2015,08,17,16,25,24.90
2015,08,17,16,26,25.00
2015,08,17,16,27,24.90
2015,08,17,16,28,24.90
2015,08,17,16,29,24.90
2015,08,17,16,30,24.90
2015,08,17,16,31,24.90
2015,08,17,16,32,24.90
2015,08,17,16,33,24.90
2015,08,17,16,34,24.90
2015,08,17,16,35,24.90
2015,08,17,16,36,24.80
2015,08,17,16,37,24.80
2015,08,17,16,38,24.80
2015,08,17,16,39,24.80
2015,08,17,16,40,24.90
2015,08,17,16,41,24.90
2015,08,17,16,42,24.90
2015,08,17,16,43,25.00
2015,08,17,16,44,25.00
2015,08,17,16,45,25.10
2015,08,17,16,46,25.10
2015,08,17,16,47,25.00
2015,08,17,16,48,25.00
2015,08,17,16,49,24.90
2015,08,17,16,50,24.90
2015,08,17,16,51,25.00
2015,08,17,16,52,25.10
2015,08,17,16,53,25.10
2015,08,17,16,54,25.20
2015,08,17,16,55,25.20
2015,08,17,16,56,25.20
2015,08,17,16,57,25.20
2015,08,17,16,58,25.20
2015,08,17,16,59,25.30
2015,08,17,17,00,25.30
2015,08,17,17,01,25.30
2015,08,17,17,02,25.30
2015,08,17,17,03,25.30
2015,08,17,17,04,25.20
2015,08,17,17,05,25.20
2015,08,17,17,06,25.20
2015,08,17,17,07,25.20
2015,08,17,17,08,25.30
2015,08,17,17,09,25.30
2015,08,17,17,10,25.30
2015,08,17,17,11,25.30
2015,08,17,17,12,25.30
2015,08,17,17,13,25.30
2015,08,17,17,14,25.30
2015,08,17,17,15,25.30
2015,08,17,17,16,25.30
2015,08,17,17,17,25.30
2015,08,17,17,18,25.30
2015,08,17,17,19,25.40